Date,TemperatureHighF,TemperatureAvgF,TemperatureLowF,DewpointHighF,DewpointAvgF,DewpointLowF,HumidityHigh,HumidityAvg,HumidityLow,PressureMaxIn,PressureMinIn,WindSpeedMaxMPH,WindSpeedAvgMPH,GustSpeedMaxMPH,PrecipitationSumIn
2013-5-1,83.1,72.2,56.7,61.7,56.2,51.7,93,60,36,30.06,29.89,14,4,21,0.00
2013-5-2,63.7,54.9,44.5,55.5,47.7,39.2,86,77,64,30.13,30.04,15,6,26,0.00
2013-5-3,56.6,47.7,42.0,53.7,45.4,39.0,96,92,83,30.06,29.88,10,5,17,0.19
2013-5-4,71.9,59.6,51.0,56.6,52.2,49.0,96,78,51,29.98,29.88,12,4,18,0.03
2013-5-5,73.0,59.7,48.0,54.2,48.2,44.0,96,68,40,29.98,29.89,13,4,20,0.00
2013-5-6,73.4,62.0,48.2,48.5,44.1,38.1,82,55,31,29.97,29.89,10,4,18,0.00
2013-5-7,76.2,62.0,44.2,55.3,45.8,39.5,86,58,32,29.99,29.91,9,2,15,0.00
2013-5-8,81.5,65.0,46.5,58.5,50.1,43.7,95,62,30,29.98,29.89,7,1,12,0.00
2013-5-9,74.1,62.1,52.1,61.5,55.5,47.2,97,80,57,29.91,29.75,8,3,17,0.39
2013-5-10,61.7,52.2,45.7,60.6,50.1,43.2,97,93,86,29.93,29.71,8,3,15,0.00
2013-5-11,64.0,51.4,38.0,56.0,42.8,32.0,96,75,38,30.00,29.80,14,4,22,0.00
2013-5-12,57.5,45.8,34.1,37.5,32.5,28.4,86,62,36,30.09,30.00,8,3,15,0.00
2013-5-13,66.3,51.8,32.3,41.1,33.8,27.1,94,56,23,30.15,29.98,8,2,16,0.00
2013-5-14,90.4,71.4,54.8,62.6,51.6,38.5,68,51,28,29.98,29.61,14,5,20,0.00
2013-5-15,85.9,73.5,59.4,64.7,56.0,47.1,77,56,28,29.75,29.61,12,4,20,0.02
2013-5-16,72.8,60.6,52.1,51.6,48.2,43.6,92,66,35,29.90,29.74,3,1,8,0.00
2013-5-17,81.2,67.3,57.3,65.9,58.8,47.2,95,76,51,29.95,29.88,9,2,14,0.54
2013-5-18,79.0,69.0,60.4,67.6,63.6,59.1,98,84,60,30.00,29.87,10,4,16,0.00
2013-5-19,86.3,74.7,61.4,70.5,65.1,60.0,96,74,46,29.89,29.69,12,4,18,0.00
2013-5-20,88.5,78.3,64.9,70.1,64.3,56.7,96,65,35,29.75,29.62,28,6,36,0.70
2013-5-21,80.3,71.0,62.1,71.1,65.8,60.7,96,84,67,29.71,29.58,14,4,20,0.32
2013-5-22,72.2,66.9,61.0,68.3,63.0,57.4,97,88,63,29.69,29.54,12,4,16,0.71
2013-5-23,61.2,55.1,49.3,58.3,52.7,46.0,97,92,82,30.00,29.69,10,5,20,0.05
2013-5-30,84.7,77.1,63.7,75.3,69.6,61.2,96,78,63,29.85,29.72,13,6,25,0.14
2013-5-31,77.5,70.4,64.1,71.3,67.2,62.9,96,90,76,29.81,29.64,14,4,21,0.25